Pampa, TX

12:36 AM CST on January 23, 2018 (GMT -0600)
Perry Lefors

Weather History for KPPA - November, 2012

Change the Weather History Date:

Wednesday, November 7, 2012

  Actual Average Record
Temperature  
Mean Temperature 59 °F -  
Max Temperature 77 °F 61 °F 81 °F (1980)
Min Temperature 41 °F 34 °F 18 °F (1993)
Degree Days  
Heating Degree Days 6    
Growing Degree Days 9 (Base 50)    
Moisture  
Dew Point 34 °F    
Average Humidity 40    
Maximum Humidity 70    
Minimum Humidity 21    
Precipitation  
Precipitation 0.00 in - - ()
Sea Level Pressure  
Sea Level Pressure 30.08 in    
Wind  
Wind Speed 13 mph (South)    
Max Wind Speed 22 mph    
Max Gust Speed 28 mph    
Visibility 10 miles    
Events      
Averages and records for this station are not official NWS values.
T = Trace of Precipitation, MM = Missing Value Source: NWS Daily Summary

Daily Weather History Graph

Daily Weather History Graph

Search for Another Location

Airport or City:

Trip Planner

Search our weather history database for the weather conditions in past years. The results will help you decide how hot, cold, wet, or windy it might be!

Date:

Astronomy

Nov. 07, 2012 Rise Set
Actual Time 7:12 AM CST 5:42 PM CST
Civil Twilight 6:45 AM CST 6:09 PM CST
Nautical Twilight 6:15 AM CST 6:39 PM CST
Astronomical Twilight 5:45 AM CST 7:09 PM CST
Moon 12:21 AM CST (11/7) 1:40 PM CST (11/7)
Length of Visible Light 11h 23m
Length of Day
10h 30m
Last Quarter, 43% of the Moon is Illuminated
Nov 7
Last Quarter
Nov 13
New
Nov 20
First Quarter
Nov 28
Full
Dec 6
Last Quarter

Hourly Weather History & Observations

Time (CST) Temp. Windchill Dew Point Humidity Pressure Visibility Wind Dir Wind Speed Gust Speed Precip Events Conditions
12:15 AM 46.4 °F 42.4 °F 32.0 °F 57% 30.22 in 10.0 mi SE 8.1 mph - N/A   Clear
12:35 AM 48.2 °F - 32.0 °F 54% 30.22 in 10.0 mi SSE 9.2 mph - N/A   Clear
12:55 AM 42.8 °F 38.6 °F 32.0 °F 66% 30.22 in 10.0 mi SSE 6.9 mph - N/A   Clear
1:15 AM 42.8 °F 38.0 °F 32.0 °F 66% 30.21 in 10.0 mi SSE 8.1 mph - N/A   Clear
1:35 AM 41.0 °F 35.2 °F 32.0 °F 70% 30.21 in 10.0 mi South 9.2 mph - N/A   Clear
1:55 AM 44.6 °F 39.2 °F 32.0 °F 61% 30.21 in 10.0 mi South 10.4 mph - N/A   Clear
2:15 AM 42.8 °F 37.5 °F 32.0 °F 66% 30.21 in 10.0 mi South 9.2 mph - N/A   Clear
2:55 AM 42.8 °F 37.5 °F 32.0 °F 66% 30.21 in 10.0 mi South 9.2 mph - N/A   Clear
3:15 AM 44.6 °F 39.7 °F 32.0 °F 61% 30.19 in 10.0 mi South 9.2 mph - N/A   Clear
3:35 AM 44.6 °F 38.8 °F 32.0 °F 61% 30.19 in 10.0 mi South 11.5 mph - N/A   Clear
3:55 AM 44.6 °F 38.8 °F 32.0 °F 61% 30.18 in 10.0 mi South 11.5 mph - N/A   Clear
4:15 AM 46.4 °F 41.1 °F 32.0 °F 57% 30.18 in 10.0 mi South 11.5 mph - N/A   Clear
4:35 AM 44.6 °F 39.7 °F 32.0 °F 61% 30.18 in 10.0 mi South 9.2 mph - N/A   Clear
7:15 AM 44.6 °F 38.8 °F 32.0 °F 61% 30.17 in 10.0 mi South 11.5 mph - N/A   Clear
7:35 AM 46.4 °F 40.7 °F 33.8 °F 62% 30.17 in 10.0 mi South 12.7 mph - N/A   Clear
7:55 AM 48.2 °F - 33.8 °F 58% 30.18 in 10.0 mi South 13.8 mph - N/A   Clear
8:15 AM 50.0 °F - 32.0 °F 50% 30.18 in 10.0 mi South 13.8 mph - N/A   Clear
8:35 AM 53.6 °F - 32.0 °F 44% 30.18 in 10.0 mi South 15.0 mph - N/A   Clear
8:55 AM 55.4 °F - 32.0 °F 41% 30.18 in 10.0 mi South 18.4 mph - N/A   Clear
9:15 AM 59.0 °F - 32.0 °F 36% 30.17 in 10.0 mi South 19.6 mph 25.3 mph N/A   Clear
9:35 AM 60.8 °F - 32.0 °F 34% 30.17 in 10.0 mi South 18.4 mph 21.9 mph N/A   Clear
9:55 AM 62.6 °F - 32.0 °F 32% 30.17 in 10.0 mi South 17.3 mph - N/A   Clear
10:15 AM 64.4 °F - 32.0 °F 30% 30.16 in 10.0 mi South 15.0 mph - N/A   Clear
10:35 AM 66.2 °F - 33.8 °F 30% 30.16 in 10.0 mi South 16.1 mph 20.7 mph N/A   Clear
10:55 AM 68.0 °F - 33.8 °F 28% 30.15 in 10.0 mi South 16.1 mph 21.9 mph N/A   Clear
11:15 AM 69.8 °F - 35.6 °F 28% 30.14 in 10.0 mi SSW 15.0 mph 23.0 mph N/A   Clear
11:35 AM 69.8 °F - 35.6 °F 28% 30.13 in 10.0 mi SSW 16.1 mph 23.0 mph N/A   Clear
11:55 AM 71.6 °F - 35.6 °F 27% 30.12 in 10.0 mi SSW 18.4 mph 24.2 mph N/A   Clear
12:15 PM 73.4 °F - 35.6 °F 25% 30.10 in 10.0 mi SSW 19.6 mph 24.2 mph N/A   Clear
12:35 PM 73.4 °F - 33.8 °F 23% 30.08 in 10.0 mi SSW 17.3 mph 25.3 mph N/A   Clear
12:55 PM 75.2 °F - 33.8 °F 22% 30.07 in 10.0 mi SSW 16.1 mph 24.2 mph N/A   Clear
1:15 PM 75.2 °F - 33.8 °F 22% 30.06 in 10.0 mi SSW 19.6 mph 25.3 mph N/A   Clear
1:35 PM 75.2 °F - 33.8 °F 22% 30.05 in 10.0 mi SSW 19.6 mph 27.6 mph N/A   Clear
1:55 PM 77.0 °F - 33.8 °F 21% 30.03 in 10.0 mi SSW 18.4 mph 26.5 mph N/A   Clear
2:15 PM 77.0 °F - 33.8 °F 21% 30.03 in 10.0 mi South 21.9 mph 25.3 mph N/A   Clear
2:35 PM 77.0 °F - 35.6 °F 22% 30.02 in 10.0 mi South 18.4 mph 24.2 mph N/A   Clear
2:55 PM 75.2 °F - 35.6 °F 24% 30.02 in 10.0 mi South 19.6 mph 26.5 mph N/A   Clear
3:15 PM 75.2 °F - 33.8 °F 22% 30.01 in 10.0 mi South 19.6 mph 26.5 mph N/A   Clear
3:35 PM 75.2 °F - 33.8 °F 22% 30.01 in 10.0 mi SSW 21.9 mph - N/A   Clear
3:55 PM 75.2 °F - 33.8 °F 22% 30.00 in 10.0 mi South 20.7 mph 25.3 mph N/A   Clear
4:15 PM 75.2 °F - 33.8 °F 22% 30.00 in 10.0 mi South 16.1 mph - N/A   Clear
4:35 PM 73.4 °F - 33.8 °F 23% 30.00 in 10.0 mi South 17.3 mph - N/A   Clear
4:55 PM 73.4 °F - 32.0 °F 22% 30.00 in 10.0 mi South 19.6 mph 23.0 mph N/A   Clear
5:15 PM 73.4 °F - 32.0 °F 22% 30.00 in 10.0 mi South 13.8 mph 19.6 mph N/A   Clear
5:35 PM 69.8 °F - 32.0 °F 25% 30.00 in 10.0 mi South 11.5 mph - N/A   Clear
5:55 PM 68.0 °F - 32.0 °F 26% 30.00 in 10.0 mi SSE 13.8 mph 17.3 mph N/A   Clear
6:15 PM 64.4 °F - 35.6 °F 34% 30.00 in 10.0 mi SSE 12.7 mph - N/A   Clear
6:35 PM 62.6 °F - 35.6 °F 37% 30.00 in 10.0 mi SSE 12.7 mph - N/A   Clear
6:55 PM 62.6 °F - 35.6 °F 37% 30.00 in 10.0 mi SSE 12.7 mph - N/A   Clear
7:15 PM 62.6 °F - 35.6 °F 37% 30.00 in 10.0 mi SSE 15.0 mph - N/A   Clear
7:35 PM 60.8 °F - 35.6 °F 39% 30.00 in 10.0 mi SSE 16.1 mph - N/A   Clear
7:55 PM 60.8 °F - 35.6 °F 39% 30.00 in 10.0 mi SSE 18.4 mph 21.9 mph N/A   Clear
8:15 PM 59.0 °F - 35.6 °F 42% 30.00 in 10.0 mi SSE 18.4 mph 24.2 mph N/A   Clear
8:35 PM 59.0 °F - 35.6 °F 42% 30.00 in 10.0 mi SSE 17.3 mph 23.0 mph N/A   Clear
8:55 PM 59.0 °F - 35.6 °F 42% 30.00 in 10.0 mi SSE 18.4 mph - N/A   Clear
9:15 PM 59.0 °F - 35.6 °F 42% 30.00 in 10.0 mi SSE 19.6 mph 23.0 mph N/A   Clear
9:35 PM 57.2 °F - 35.6 °F 44% 30.00 in 10.0 mi SSE 16.1 mph - N/A   Clear
9:55 PM 57.2 °F - 35.6 °F 44% 30.00 in 10.0 mi SSE 16.1 mph - N/A   Clear
10:15 PM 57.2 °F - 35.6 °F 44% 29.99 in 10.0 mi South 17.3 mph - N/A   Clear
10:35 PM 57.2 °F - 37.4 °F 48% 29.99 in 10.0 mi South 17.3 mph - N/A   Clear
10:55 PM 57.2 °F - 37.4 °F 48% 29.98 in 10.0 mi South 18.4 mph - N/A   Clear
11:15 PM 57.2 °F - 37.4 °F 48% 29.97 in 10.0 mi South 19.6 mph 24.2 mph N/A   Clear
11:35 PM 57.2 °F - 37.4 °F 48% 29.96 in 10.0 mi South 17.3 mph 23.0 mph N/A   Clear
11:55 PM 57.2 °F - 37.4 °F 48% 29.96 in 10.0 mi South 19.6 mph - N/A   Clear